sat.trackr.live / text

‹ back to catalog

COSMOS 2528

NORAD 43657 · 2018-082A

PAYLOAD ACTIVE UNKNOWN

§ Identity

Operator
Country
CIS
Launch date
2018-10-25
Launch site
PLMSC
Launch vehicle
Mass (kg)
RCS (m²)

External: N2YO · Heavens-Above · Gunter

§ Orbital elements

Epoch: 2026-09-08T22:24:51.266016Z

Period
103.10 min
Inclination
67.1469°
Eccentricity
0.0007922
Mean motion
13.96714245 rev/d
Perigee alt
899.4 km
Apogee alt
911.0 km
Semi-major
7,283.3 km
B*
1.7483e-5
RAAN
234.2068°
Arg perigee
261.3372°
Mean anomaly
98.6816°
Rev number
40,164

§ Raw data

COSMOS 25281 43657U 18082A   26251.93392669 -.00000051  00000+0  17483-4 0  99902 43657  67.1469 234.2068 0007922 261.3372  98.6816 13.96714245401644

JSON: /api/v1/satellites/43657 · /tle

For live sub-satellite position, see the globe view (requires WebGL).

§ Visibility from observer

Set your observer location to see the next 7 days of passes ≥ 10°. The values pass through the URL so the page stays shareable.

No JS? Fill the form by hand. The geolocation button needs JavaScript.